Regional Weather Roundup
Issued by NWS

Home | Current Version | Previous Version | Graphics & Text | Print | Product List | Glossary On
Versions: 1 2 3 4 5 6 7 8 9 10 11 12 13 14 15 16 17 18 19 20 21 22 23 24 25 26 27 28 29 30 31 32 33 34 35 36 37 38 39 40 41 42 43 44 45 46 47 48 49 50
000
ASUS43 KIND 041809
RWRIN

WEATHER ROUNDUP FOR INDIANA
NATIONAL WEATHER SERVICE INDIANAPOLIS IN
100 PM EST SUN DEC 04 2016

NOTE: "FAIR" INDICATES FEW OR NO CLOUDS BELOW 12,000 FEET WITH NO
SIGNIFICANT WEATHER AND/OR OBSTRUCTIONS TO VISIBILITY.

* - STATION DOES NOT REPORT WEATHER SUCH AS PRECIPITATION OR FOG.

+ - STATION NOT QUALITY CONTROLLED BY THE NATIONAL WEATHER SERVICE.
    USE DATA WITH CAUTION...ESPECIALLY DEWPOINT AND RELATIVE
    HUMIDITY OBSERVATIONS.

INZ001>003-010>013-019-020-041900-
NORTHWEST INDIANA

CITY           SKY/WX    TMP DP  RH WIND       PRES   REMARKS
GARY /AIRPORT/ LGT SNOW  34  32  93 CALM      30.04F VSB 3/4
KNOX *+        CLOUDY    34  19  55 E7        30.02F WCI  28
LA PORTE +     LGT SNOW  36  36 100 SE5       30.03F
6HR MIN TEMP:  32; 6HR MAX TEMP:  37;

MICHIGAN CITY+ LGT SNOW  34  32  93 SE6       30.04F WCI  29
MONTICELLO +   DRIZZLE   37  29  71 E6        30.01F
6HR MIN TEMP:  32; 6HR MAX TEMP:  37;

RENSSELAER +   LGT SNOW  34  32  93 E6        30.01F WCI  29
VALPARAISO     SNOW      34  31  88 E6        30.03F VSB 1/2 WCI  29
6HR MIN TEMP:  32; 6HR MAX TEMP:  35; 6HR PCP:  0.01;


$$

LMZ046-743>745-041900-
SOUTHERN LAKE MICHIGAN

STATION/POSITION TIME  TEMP    WIND        PRES    WAVE
                       AIR SEA DIR/SP/G            HT
                 (UTC) (F)     (DEG/KT/KT) (MB)    (FT)
BURNS HARBOR     1740   34     150/  4/  7 1017.9F

$$

INZ004-005-014>016-021>024-041900-
NORTH CENTRAL INDIANA

CITY           SKY/WX    TMP DP  RH WIND       PRES   REMARKS
ELKHART        CLOUDY    37  28  70 SE6       30.05
GOSHEN         CLOUDY    37  29  72 SE5       30.05F
6HR MIN TEMP:  32; 6HR MAX TEMP:  37;

LOGANSPORT +   CLOUDY    37  32  81 SE9       30.03F
ROCHESTER +    CLOUDY    37  34  87 E5        30.03F
SOUTH BEND     CLOUDY    35  29  78 SE8       30.05F WCI  29
6HR MIN TEMP:  31; 6HR MAX TEMP:  35; 6HR PCP: TRACE;

WARSAW +       CLOUDY    36  28  75 SE5       30.04F

$$

INZ006>009-017-018-025>027-041900-
NORTHEAST INDIANA

CITY           SKY/WX    TMP DP  RH WIND       PRES   REMARKS
ANGOLA *+      PTSUNNY   36  28  75 SE9       30.04F
AUBURN +       CLOUDY    37  30  75 SE6       30.05F
FORT WAYNE     CLOUDY    38  30  73 SE10      30.05F
6HR MIN TEMP:  31; 6HR MAX TEMP:  38;

HUNTINGTON +   CLOUDY    38  30  75 SE8       30.02F
6HR MIN TEMP:  31; 6HR MAX TEMP:  38;

KENDALLVILLE + CLOUDY    36  29  76 SE7       30.05S

$$

INZ028-029-035-036-043>045-051>053-041900-
WEST CENTRAL INDIANA

CITY           SKY/WX    TMP DP  RH WIND       PRES   REMARKS
CRAWFORDSVL +  CLOUDY    37  36  96 E8        29.97F FOG
6HR MIN TEMP:  32; 6HR MAX TEMP:  37;

GREENCASTLE +  CLOUDY    37  36  93 SE7       29.96F FOG
LAFAYETTE      LGT RAIN  37  34  89 E8        29.99F FOG
6HR MIN TEMP:  32; 6HR MAX TEMP:  37; 6HR PCP:  0.04;

TERRE HAUTE    LGT RAIN  40  35  83 SE7       29.95F
6HR MIN TEMP:  35; 6HR MAX TEMP:  40; 6HR PCP:  0.01;


$$

INZ030>032-037>040-046>048-054>057-064-065-041900-
CENTRAL INDIANA

CITY           SKY/WX    TMP DP  RH WIND       PRES   REMARKS
CP ATTERBURY + LGT RAIN  41  32  70 E7        29.98F
COLUMBUS       CLOUDY    41  34  75 SE9       29.99F
FISHERS *+     CLOUDY    37  34  87 E6        29.98F
FRANKFORT +    DRIZZLE   40  36  86 SE10      30.00F
6HR MIN TEMP:  34; 6HR MAX TEMP:  40;

GREENWOOD *+   CLOUDY    41  33  73 SE12      29.99F
6HR MIN TEMP:  35; 6HR MAX TEMP:  41;

INDIANAPOLIS   LGT RAIN  40  33  76 E12       29.97F
6HR MIN TEMP:  34; 6HR MAX TEMP:  40; 6HR PCP: TRACE;

-EAGLE CREEK   CLOUDY    41  31  67 SE10      29.97F
6HR MIN TEMP:  35; 6HR MAX TEMP:  41; 6HR PCP: TRACE;

KOKOMO +       LGT RAIN  38  34  85 E10       30.01F
6HR MIN TEMP:  32; 6HR MAX TEMP:  38; 6HR PCP: TRACE;

MARION +       CLOUDY    38  32  77 SE12      30.01F
MT COMFORT *+  CLOUDY    39  32  75 SE10      29.99F
SHELBYVILLE    CLOUDY    41  32  70 SE15      29.98F
6HR MIN TEMP:  35; 6HR MAX TEMP:  42;

ZIONSVILLE +   CLOUDY    38  32  79 SE10      29.99F
6HR MIN TEMP:  32; 6HR MAX TEMP:  38;


$$

INZ033-034-041-042-049-050-058-059-041900-
EAST CENTRAL INDIANA

CITY           SKY/WX    TMP DP  RH WIND       PRES   REMARKS
MUNCIE         LGT RAIN  41  30  65 SE15      30.00F
6HR MIN TEMP:  34; 6HR MAX TEMP:  41; 6HR PCP: TRACE;


$$

INZ060-061-067>069-081>083-085>088-041900-
SOUTHWEST INDIANA

CITY           SKY/WX    TMP DP  RH WIND       PRES   REMARKS
EVANSVILLE     LGT RAIN  43  41  93 S7        29.97F FOG
6HR MIN TEMP:  39; 6HR MAX TEMP:  44; 6HR PCP:  0.01;

HUNTINGBURG *+ CLOUDY    45  40  82 S9        29.96F
6HR MIN TEMP:  38; 6HR MAX TEMP:  45; 6HR PCP: TRACE;

WASHINGTON +   DRIZZLE   42  42  99 SE9       29.95F
6HR MIN TEMP:  37; 6HR MAX TEMP:  42;


$$

INZ062-063-066-070>080-084-089>092-041900-
SOUTH CENTRAL AND SOUTHEAST INDIANA

CITY           SKY/WX    TMP DP  RH WIND       PRES   REMARKS
BLOOMINGTON    LGT RAIN  41  34  76 SE8       29.95F
6HR MIN TEMP:  36; 6HR MAX TEMP:  41; 6HR PCP: TRACE;

MADISON *+     CLOUDY    45  32  61 SE7       30.01F
SEYMOUR +      CLOUDY    45  34  65 SE7       29.98F

$$





USA.gov is the U.S. government's official web portal to all federal, state and local government web resources and services.